Погода в Тонгулахе

Погода в Тонгулахе : погода сейчас, прогноз погоды и архив. Всё, что Вы хотите узнать о погоде в Тонгулахе!

Поиск расширенной информации на нашем сайте:

Другие новости

Новости СМИ2

Главная страница сайта

Новости сайта

03.07.2017

Напоминаем, что на нашем специализированном сайте Метеоцентр.Азия вы можете получить высокодетализированные автоматические прогнозы погоды по пунктам России, СНГ и мира в авиационном формате (включающие направление и скорость ветра, видимость, явления погоды, количество и форму облачности, нижнюю и верхнюю границу облачности).


Погода в Тонгулахе - сегодня

Время (UTC), дата Ветер
(°,м/с) 
Видим.   Явления Облачность Т
(°С)
Тd
(°С)
f(%) Тe
(°С)
Pmin
(гПа)
dP
(гПа)
Po
(мм)
O2
(г/м3)
Тmin Tmax R s Состояние
почвы
06 22.09.17 140 (ЮВ) 20000 м    6/0 верхняя 
[Ci fib]
+10.6 -1.4 43 +11  1010  -1.4  740  287           
09 22.09.17 140 (ЮВ) 20000 м    9/0 верхняя 
[Ci sp]
+9.2 -3.6 40 +9  1010.3  -0.8  740  289           
12 22.09.17 140 (ЮВ) 20000 м    3/0 средняя 
[Ac trans]
+5.4 -2.7 56 +6  1010.5  -0.2  740  293    +11       
15 22.09.17 050 (СВ) 20000 м    ясно 
+1.4 -2.1 77 +1  1010.3  -0.5  739  297           
18 22.09.17 050 (СВ) 20000 м    ясно 
+0.6 -2.3 81 +1  1010  -0.4  739  297           
00 23.09.17 180 (Ю) 20000 м    10/6 1000 м средняя 
[Sc|Ac und]
+3.8 -1.1 70 +2  1005.7  -0.6  736  293  +0.4        влажная 
03 23.09.17 180 (Ю) 20000 м  {дождь}  10/0 
[Frnb]
+6.8 -1.2 57 +5  1004.2  -1.3  735  289           
06 23.09.17 140 (ЮВ) 20000 м  {дождь}  10/0 средняя 
[Ac As]
+6.9 +3.6 79 +8  1003.6  -0.5  735  288           
09 23.09.17 180 (Ю) 20000 м    10/0 средняя 
[Ac As]
+8.5 +0.5 57 +10  1003.4  -0.1  735  287           
12 23.09.17 тихо ()   20000 м  {дождь}  10/0 средняя 
[As op]
+5 +1.5 78 +5  1004.5  0.9  735  291    +9     
15 23.09.17 180 (Ю) 20000 м    10/0 средняя 
[As op]
+5.7 +0.3 68 +5  1004.4  -0.1  735  290           
18 23.09.17 180 (Ю) 20000 м    10/0 средняя 
[As op]
+4.3 -0.8 69 +5  1004.2  -0.3  735  292           
21 23.09.17 тихо ()   20000 м  слаб. дождь  10/0 средняя 
[As op]
+4 +3 93 +4  1005.6  1.5  736  292           
00 24.09.17 тихо ()   20000 м  слаб. дождь  10/0 средняя 
[As op]
+4 +3 93 +4  1006.3  0.6  737  292  +3.5      мокрая 
03 24.09.17 тихо ()   20000 м  дождь  10/0 средняя 
[As op]
+5 +4.1 94 +5  1006.4  0.2  737  291           
06 24.09.17 тихо ()   20000 м  дождь  10/0 средняя 
[As op]
+5 +4.5 97 +5  1006.5  0.1  737  291           
09 24.09.17 тихо ()   20000 м  дождь  10/0 средняя 
[As op]
+4.2 +3.7 97 +4  1007.4  0.6  737  292           
12 24.09.17 тихо ()   10 км  {дождь}  10/0 средняя 
[As op]
+2 +1.6 97 +2  1008.5  738  295    +5  12     
15 24.09.17 тихо ()   20000 м    10/0 средняя 
[As op]
+1.2 +0.7 96 +1  1008.2  -0.4  738  296           
18 24.09.17 тихо ()   20000 м    10/0 средняя 
[As op]
+0.6 +0 96 +1  1008  -0.3  737  296           
21 24.09.17 тихо ()   10 км  слаб. дождь со снегом  10/0 средняя 
[As op]
+0.3 +0.3 100 1007.7  -0.3  737  297           
00 25.09.17 тихо ()   20000 м  слаб. дождь со снегом  10/0 средняя 
[As op]
+0.4 -0.4 94 1007.9  0.2  737  297  +0.2    11  равномерный
мокрый или
старый снег
100% 
03 25.09.17 тихо ()   20000 м  {снег}  10/6 600 м средняя 
[St|As op]
+2.2 +1.9 98 +2  1008.8  1.1  738  295           
06 25.09.17 230 (ЮЗ) 20000 м  {снег}  10/10 600 м 
[St]
+3 +1.2 88 +2  1009.6  0.9  739  294           
09 25.09.17 тихо ()   20000 м    ясно 
+2.6 -1.3 75 +3  1010.8  1.1  740  295           
Время (UTC), дата Ветер
(°,м/с) 
Видим.   Явления Облачность Т
(°С)
Тd
(°С)
f(%) Тe
(°С)
Pmin
(гПа)
dP
(гПа)
Po
(мм)
O2
(г/м3)
Тmin Tmax R s Состояние
почвы

Для получения пояснительной информации подведите курсор к названию столбца.

ПОГОДА в Тонгулахе - архив

Всё, что Вы хотите узнать о погоде в Тонгулахе - удобно и подробно!

Выберите нужную дату (начиная с 1 января 2015* года) и нажмите кнопку "Найти".
Будут отображены архивные сводки погоды по пункту Тонгулах, начиная с указанной даты.


Отображать данные в формате CSV (для использования в таблицах Excel)


Внимание! Наш архив погоды предназначен исключительно для личного некоммерческого использования в познавательных целях. Если Вам необходимы официальные справки о состоянии погоды (для производственных, юридических, коммерческих и т.п. целей), обращайтесь в органы Росгидромета.

*Примечание: данная дата относится к архиву по метеостанциям СССР (Россия, СНГ, Балтия).
Архив по метеостанциям Зарубежной Европы и Азии (кроме Китая) хранится 10 дней, по другим регионам земного шара (Китай, Африка, Америка, Австралия, Океания) - 1 день.

Тонгулах - район местоположения метеостанции


Название, широта, долгота, высота метеостанции:
Тонгулах 62°ш. 124.9°д. 205 м над ур. моря [Российская Федерация]

Дополнительная информация

В oтличие oт бoльшинства пoгoдных сайтoв мы публикуем пoдрoбную метеoинфoрмацию в детальнoм прoфессиoнальнoм фoрмате.

Характеристики температуры и влажнoсти вoздуха измеряются на высoте 2 м в тени вдали oт зданий и деревьев.
Скoрoсть ветра измеряется на высoте 10 м (на урoвне рoста челoвека скoрoсть ветра ниже в 1.5-2 раза). Если метеoстанция нахoдится в гoрoде или в лесу, тo скoрoсть ветра занижена на 2-4 м/с пo сравнению с oткрытым местoм. Скoрoсть ветра над акватoриями крупных рек и oзёр, а также на вершинах хoлмoв на 2-5 м/с выше, чем в oбычных услoвиях.
Атмoсфернoе давление в разных тoчках местнoсти мoжет значительнo oтличаться oт давления на метеoстанции, в зависимoсти oт услoвий рельефа (при пoдъёме на 10 м давление пoнижается примернo на 1 мм рт.ст.).